Weather in Itanagar

India     27°06′19″N   93°37′37″E
temp.,
°C
wind,
m/s
gust,
m/s
humid.,
%
clouds,
%
prec.,
mm/h
press.,
hPa
HPBL,
m
8 may, sat
sat823:30+21nw11887 2.3 101216
02:30+20n11906 0.8 101112
05:30+20nne12895 2.3 101289
08:30+25nnw127393 0.9 1014419
11:30+27w125722 1.0 1012689
14:30+28sw235588 0.0 1008261
17:30+26ssw11686 0.1 100839
20:30+23wnw11815 0.1 100913
9 may, sun
sun923:30+21n11825 0.3 101014
02:30+21n1182100 0.3 100913
05:30+21nnw1183100 0.6 101140
08:30+27ese116299 0.5 1012639
11:30+31sse334528 0.6 10091748
14:30+34ssw153731 0.2 10052208
17:30+29n225588 0.3 100427
20:30+21nne1292100 3.1 100859
10 may, mon
mon1023:30+20nw11930 5.3 100815
02:30+19n119426 1.1 100737
05:30+20n1290100 3.4 100885
08:30+21nne1289100 0.6 1010136
11:30+25nne1170100 0.7 1009497
14:30+28ne215631 0.0 1006971
17:30+25ne35690 0.1 1004176
20:30+21nnw228815 1.6 100741
11 may, tue
tue1123:30+20wnw1194100 5.1 100719
02:30+20n2394100 2.6 100784
05:30+20w1195100 4.1 100935
08:30+21n1291100 4.4 1011220
11:30+25ene3472100 5.6 1009752
14:30+26ene356543 0.1 1007835
17:30+24ene3875100 0.3 1005430
20:30+21n2489100 0.2 1007109
12 may, wed
wed1223:30+21nne1187100 0.2 100713
02:30+21nnw1186100 0.2 100719
05:30+21wnw1190100 1.0 100830
08:30+21nw1190100 0.8 100939
11:30+29se225174 0.8 10061115
14:30+31s114738 0.0 10041335
17:30+26sw236814 0.1 100368
20:30+23nw118172 0.4 100417